LEMD Weather Reports


Display with metric or nautical units.
time (UTC)temp
F
wind
direction
speed
MPH
gust
MPH
rain 1hr
in
rain 24hr
in
rain mn
in
humidity
%
barometer
mb
20260904191503 95 210 3.0 0.0 0.00 0.00 0.00 12 1021.0
20260904190004 99 240 5.0 0.0 0.00 0.00 0.00 10 1021.0
20260904184503 99 240 5.0 0.0 0.00 0.00 0.00 10 1021.0
20260904180004 100 200 6.0 0.0 0.00 0.00 0.00 1021.0
20260904174503 100 200 6.0 0.0 0.00 0.00 0.00 1021.0
20260904173003 100 230 6.0 0.0 0.00 0.00 0.00 1021.0
20260904171503 100 230 6.0 0.0 0.00 0.00 0.00 1021.0
20260904163003 100 190 7.0 0.0 0.00 0.00 0.00 11 1021.0
20260904161504 100 190 7.0 0.0 0.00 0.00 0.00 11 1021.0
20260904160004 100 230 6.0 0.0 0.00 0.00 0.00 11 1021.0
20260904154502 100 230 6.0 0.0 0.00 0.00 0.00 11 1021.0
20260904151503 100 210 5.0 0.0 0.00 0.00 0.00 1022.0
20260904144503 100 220 6.0 0.0 0.00 0.00 0.00 10 1022.0
20260904141503 100 210 6.0 0.0 0.00 0.00 0.00 11 1022.0
20260904140003 99 180 6.0 0.0 0.00 0.00 0.00 11 1023.0
20260904134502 99 180 6.0 0.0 0.00 0.00 0.00 11 1023.0
20260904133004 97 190 3.0 0.0 0.00 0.00 0.00 11 1023.0
20260904131503 97 190 3.0 0.0 0.00 0.00 0.00 11 1023.0
20260904130003 97 190 3.0 0.0 0.00 0.00 0.00 11 1023.0
20260904123003 95 0 2.0 0.0 0.00 0.00 0.00 12 1024.0
20260904121503 95 0 2.0 0.0 0.00 0.00 0.00 12 1024.0
20260904120004 93 220 3.0 0.0 0.00 0.00 0.00 12 1024.0
20260904113003 90 200 1.0 0.0 0.00 0.00 0.00 13 1025.0
20260904111503 90 200 1.0 0.0 0.00 0.00 0.00 13 1025.0
20260904110004 86 180 2.0 0.0 0.00 0.00 0.00 16 1025.0
20260904103003 84 0 2.0 0.0 0.00 0.00 0.00 18 1025.0
20260904101502 84 0 2.0 0.0 0.00 0.00 0.00 18 1025.0
20260904094503 81 260 2.0 0.0 0.00 0.00 0.00 21 1024.0
20260904091503 75 360 1.0 0.0 0.00 0.00 0.00 25 1024.0
20260904084503 73 0 1.0 0.0 0.00 0.00 0.00 27 1024.0
20260904083004 70 0 1.0 0.0 0.00 0.00 0.00 30 1024.0
20260904074504 66 10 2.0 0.0 0.00 0.00 0.00 34 1024.0
20260904070003 63 360 3.0 0.0 0.00 0.00 0.00 39 1024.0
20260904064503 63 360 3.0 0.0 0.00 0.00 0.00 39 1024.0
20260904061503 63 330 2.0 0.0 0.00 0.00 0.00 39 1024.0
20260904054503 63 360 2.0 0.0 0.00 0.00 0.00 39 1023.0
20260904044503 63 0 1.0 0.0 0.00 0.00 0.00 39 1023.0
20260904041503 66 340 5.0 0.0 0.00 0.00 0.00 34 1024.0
20260904040004 66 360 5.0 0.0 0.00 0.00 0.00 34 1024.0
20260904034503 66 360 5.0 0.0 0.00 0.00 0.00 34 1024.0
20260904033004 66 350 2.0 0.0 0.00 0.00 0.00 34 1024.0
20260904030004 68 360 3.0 0.0 0.00 0.00 0.00 32 1024.0
20260904024503 68 360 3.0 0.0 0.00 0.00 0.00 32 1024.0
20260904021503 70 360 5.0 0.0 0.00 0.00 0.00 30 1024.0
20260904020003 70 10 3.0 0.0 0.00 0.00 0.00 32 1024.0
20260904014504 70 10 3.0 0.0 0.00 0.00 0.00 32 1024.0
20260904011503 70 0 1.0 0.0 0.00 0.00 0.00 30 1024.0
20260904003003 73 350 5.0 0.0 0.00 0.00 0.00 28 1024.0
20260904001504 73 350 5.0 0.0 0.00 0.00 0.00 28 1024.0
20260904000003 75 360 3.0 0.0 0.00 0.00 0.00 27 1024.0
20260903234503 75 360 3.0 0.0 0.00 0.00 0.00 27 1024.0
20260903233004 77 0 2.0 0.0 0.00 0.00 0.00 25 1024.0
20260903231503 77 0 2.0 0.0 0.00 0.00 0.00 25 1024.0
20260903223004 82 330 3.0 0.0 0.00 0.00 0.00 20 1023.0
20260903214503 82 330 5.0 0.0 0.00 0.00 0.00 21 1023.0
20260903211503 84 350 3.0 0.0 0.00 0.00 0.00 20 1023.0
20260903210004 88 350 5.0 0.0 0.00 0.00 0.00 18 1023.0
20260903204503 88 350 5.0 0.0 0.00 0.00 0.00 18 1023.0
20260903200005 95 200 5.0 0.0 0.00 0.00 0.00 14 1022.0
20260903194503 95 200 5.0 0.0 0.00 0.00 0.00 14 1022.0